Location: Godiavel Galaoual
(15.2485°N, 12.6604°W)
Time: 04:13:34
(UTC+00:00)

Envisat - Pass Details

Date: 03 December 2021
Orbit: 764 x 766 km, 98.2° (Epoch: 28 January)

Event Time Altitude Azimuth Distance (km) Brightness Sun altitude
Rises 06:17:09 0° 354° (N) 3,223 6.0 -10.9°
Reaches altitude 10° 06:19:44 10° 342° (NNW) 2,296 5.1 -10.4°
Maximum altitude 06:23:58 28° 285° (WNW) 1,415 3.8 -9.4°
Drops below altitude 10° 06:28:13 10° 228° (SW) 2,293 5.2 -8.4°
Sets 06:30:49 0° 216° (SW) 3,218 6.1 -7.9°
